Location: Lecco
(45.8566°N, 9.3977°E)
Time: 19:38:20
(UTC+01:00)

Envisat - Pass Details

Date: 30 October 2019
Orbit: 764 x 766 km, 98.1° (Epoch: 12 November)

Event Time Altitude Azimuth Distance (km) Brightness Sun altitude
Rises 06:02:02 0° 29° (NNE) 3,240 6.5 -10.5°
Reaches altitude 10° 06:05:13 10° 50° (NE) 2,308 6.1 -9.9°
Maximum altitude 06:08:24 17° 89° (E) 1,885 6.3 -9.4°
Drops below altitude 10° 06:11:35 10° 129° (SE) 2,297 6.6 -8.8°
Sets 06:14:44 0° 149° (SSE) 3,217 6.9 -8.3°
